Volver al catálogo

OKEAN 4

ActivoCienciaPO
NORAD 23317·PAYLOAD·🇷🇺 Russia

Lanzado Oct 11, 1994 desde Plesetsk Cosmodrome

Loading…

Próximos Pases (próximas 24 horas)

TLE

ActualizadoSource: Space-Track

Época: Sep 14, 2026, 04:35 UTC

1 23317U 94066A   26257.19144311  .00001396  00000-0  11731-3 0  9992
2 23317  82.5363 169.9169 0015752 340.0669  19.9936 14.97486721728658

Sigue OKEAN 4 en tiempo real con AllMySat

Download on the App Store